カタログに戻る

STARLINK-4567

運用中通信VLEO
NORAD 53970·PAYLOAD·🇺🇸 United States

打ち上げ Oct 5, 2022 から Vandenberg Space Force Base

Loading…

次のパス (今後24時間)

TLE

最新Source: CelesTrak SupGP

元期: Sep 14, 2026, 21:32 UTC

1 53970C 22125G   26257.89770833  .00039646  00000+0  11342-2 0  2570
2 53970  53.1584  78.3665 0001214  80.0585 133.7272 15.35381335    14

AllMySatでSTARLINK-4567をリアルタイム追跡

Download on the App Store